FW5778 Weather Reports


Display with metric or nautical units.
time (UTC)temp
F
wind
direction
speed
MPH
gust
MPH
rain 1hr
in
rain 24hr
in
rain mn
in
humidity
%
barometer
mb
20210924032016 61 266 0.0 2.0 0.00 0.00 0.00 43 1021.7
20210924031545 61 266 1.0 2.0 0.00 0.00 0.00 44 1021.6
20210924031018 61 125 0.0 1.0 0.00 0.00 0.00 43 1021.5
20210924030515 62 125 0.0 1.0 0.00 0.00 0.00 43 1021.5
20210924030050 62 125 0.0 1.0 0.00 0.00 0.00 41 1021.4
20210924025519 63 111 0.0 1.0 0.00 0.00 0.00 41 1021.4
20210924025032 63 127 0.0 1.0 0.00 0.00 0.00 40 1021.4
20210924024513 63 127 0.0 1.0 0.00 0.00 0.00 40 1021.3
20210924024014 63 122 1.0 1.0 0.00 0.00 0.00 40 1021.3
20210924023514 64 270 0.0 1.0 0.00 0.00 0.00 38 1021.2
20210924023046 65 272 0.0 0.0 0.00 0.00 0.00 36 1021.2
20210924022520 65 280 0.0 3.0 0.00 0.00 0.00 35 1021.1
20210924022013 65 279 0.0 3.0 0.00 0.00 0.00 35 1021.1
20210924021515 66 263 0.0 6.0 0.00 0.00 0.00 35 1021.0
20210924021012 66 283 1.0 6.0 0.00 0.00 0.00 34 1021.0
20210924020512 66 287 0.0 5.0 0.00 0.00 0.00 34 1021.0
20210924020033 66 282 0.0 4.0 0.00 0.00 0.00 34 1021.0
20210924015527 66 279 0.0 5.0 0.00 0.00 0.00 34 1020.9
20210924015013 66 257 1.0 5.0 0.00 0.00 0.00 33 1021.0
20210924014526 67 293 0.0 5.0 0.00 0.00 0.00 34 1020.9
20210924014016 67 292 0.0 7.0 0.00 0.00 0.00 33 1020.9
20210924013511 67 328 2.0 8.0 0.00 0.00 0.00 33 1020.9
20210924013011 68 315 1.0 8.0 0.00 0.00 0.00 33 1020.8
20210924012510 68 321 3.0 8.0 0.00 0.00 0.00 32 1020.8
20210924012016 68 322 3.0 7.0 0.00 0.00 0.00 32 1020.7
20210924011512 69 317 2.0 8.0 0.00 0.00 0.00 31 1020.7
20210924011017 69 300 4.0 10.0 0.00 0.00 0.00 31 1020.6
20210924010513 69 309 6.0 10.0 0.00 0.00 0.00 30 1020.6
20210924010017 70 302 4.0 12.0 0.00 0.00 0.00 30 1020.6
20210924005514 70 328 5.0 12.0 0.00 0.00 0.00 29 1020.5
20210924005010 70 312 5.0 11.0 0.00 0.00 0.00 29 1020.5
20210924004516 71 331 3.0 11.0 0.00 0.00 0.00 29 1020.5
20210924004008 71 314 4.0 11.0 0.00 0.00 0.00 28 1020.4
20210924003508 71 312 2.0 10.0 0.00 0.00 0.00 29 1020.4
20210924003018 71 313 5.0 10.0 0.00 0.00 0.00 29 1020.4
20210924002515 71 268 3.0 13.0 0.00 0.00 0.00 29 1020.4
20210924002007 71 310 6.0 15.0 0.00 0.00 0.00 28 1020.4
20210924001513 71 327 7.0 15.0 0.00 0.00 0.00 28 1020.4
20210924001007 72 321 8.0 15.0 0.00 0.00 0.00 28 1020.3
20210924000519 72 346 7.0 15.0 0.00 0.00 0.00 27 1020.2
20210924000024 72 320 8.0 15.0 0.00 0.00 0.00 27 1020.1
20210923235506 72 335 7.0 15.0 0.00 0.00 0.00 26 1020.2
20210923235006 73 274 6.0 14.0 0.00 0.00 0.00 27 1020.1
20210923234507 73 2 6.0 12.0 0.00 0.00 0.00 26 1020.1
20210923234011 73 295 5.0 15.0 0.00 0.00 0.00 26 1020.1
20210923233505 73 358 4.0 14.0 0.00 0.00 0.00 27 1020.1
20210923233005 73 314 7.0 14.0 0.00 0.00 0.00 26 1020.2
20210923232505 73 325 5.0 14.0 0.00 0.00 0.00 26 1020.1
20210923232005 73 6 9.0 14.0 0.00 0.00 0.00 26 1020.1
20210923231504 73 293 6.0 14.0 0.00 0.00 0.00 26 1020.1
20210923231006 73 252 6.0 12.0 0.00 0.00 0.00 26 1020.1
20210923230503 73 358 5.0 13.0 0.00 0.00 0.00 26 1020.1
20210923230003 73 31 7.0 14.0 0.00 0.00 0.00 26 1019.9
20210923225506 73 315 3.0 15.0 0.00 0.00 0.00 27 1019.9
20210923225010 74 54 7.0 14.0 0.00 0.00 0.00 26 1019.9
20210923224503 74 20 5.0 13.0 0.00 0.00 0.00 27 1019.9
20210923224002 74 311 6.0 14.0 0.00 0.00 0.00 27 1019.9
20210923223220 74 48 5.0 13.0 0.00 0.00 0.00 27 1019.9
20210923222600 74 58 7.0 13.0 0.00 0.00 0.00 26 1019.9
20210923222108 74 57 6.0 13.0 0.00 0.00 0.00 27 1019.9
20210923221656 74 346 5.0 11.0 0.00 0.00 0.00 27 1019.9
20210923221107 74 41 5.0 13.0 0.00 0.00 0.00 27 1019.9
20210923220620 74 335 6.0 15.0 0.00 0.00 0.00 27 1019.9
20210923220219 74 8 7.0 15.0 0.00 0.00 0.00 28 1019.9
20210923215557 74 22 6.0 14.0 0.00 0.00 0.00 26 1020.0
20210923215056 73 315 6.0 15.0 0.00 0.00 0.00 27 1019.9
20210923214843 73 359 7.0 14.0 0.00 0.00 0.00 26 1020.0
20210923214107 73 285 6.0 14.0 0.00 0.00 0.00 26 1020.0
20210923213610 74 315 6.0 14.0 0.00 0.00 0.00 26 1019.9
20210923213116 74 329 7.0 14.0 0.00 0.00 0.00 26 1019.9
20210923212554 73 315 4.0 16.0 0.00 0.00 0.00 26 1019.9
20210923212102 73 335 6.0 16.0 0.00 0.00 0.00 25 1020.0
20210923211556 73 350 5.0 13.0 0.00 0.00 0.00 27 1020.0
20210923211101 73 1 8.0 14.0 0.00 0.00 0.00 25 1020.1
20210923210553 73 347 8.0 14.0 0.00 0.00 0.00 26 1020.1
20210923210208 73 342 6.0 13.0 0.00 0.00 0.00 26 1020.1
20210923205553 73 338 6.0 14.0 0.00 0.00 0.00 27 1020.2
20210923205125 73 324 8.0 15.0 0.00 0.00 0.00 25 1020.2
20210923204712 73 32 8.0 15.0 0.00 0.00 0.00 26 1020.4
20210923204052 74 359 5.0 14.0 0.00 0.00 0.00 26 1020.4
20210923203550 73 309 8.0 14.0 0.00 0.00 0.00 25 1020.4
20210923203247 73 340 5.0 14.0 0.00 0.00 0.00 26 1020.3
20210923202600 73 340 7.0 12.0 0.00 0.00 0.00 26 1020.3
20210923202053 73 326 4.0 12.0 0.00 0.00 0.00 26 1020.3
20210923201711 73 341 6.0 15.0 0.00 0.00 0.00 26 1020.4
20210923201049 73 333 8.0 15.0 0.00 0.00 0.00 25 1020.4
20210923200548 73 321 6.0 12.0 0.00 0.00 0.00 25 1020.4
20210923200108 73 339 4.0 9.0 0.00 0.00 0.00 25 1020.4
20210923195550 73 319 3.0 11.0 0.00 0.00 0.00 27 1020.5
20210923195104 73 296 4.0 11.0 0.00 0.00 0.00 27 1020.5
20210923194716 72 327 6.0 11.0 0.00 0.00 0.00 26 1020.5
20210923194051 71 321 6.0 10.0 0.00 0.00 0.00 27 1020.5
20210923193549 71 313 6.0 11.0 0.00 0.00 0.00 27 1020.6
20210923193113 71 353 3.0 13.0 0.00 0.00 0.00 27 1020.6
20210923192544 71 13 7.0 13.0 0.00 0.00 0.00 28 1020.7
20210923192044 71 323 4.0 17.0 0.00 0.00 0.00 28 1020.7
20210923191617 71 316 5.0 17.0 0.00 0.00 0.00 28 1020.7
20210923191043 71 323 5.0 14.0 0.00 0.00 0.00 28 1020.8
20210923190547 72 332 5.0 16.0 0.00 0.00 0.00 28 1020.7
20210923190100 72 5 6.0 14.0 0.00 0.00 0.00 27 1020.7
20210923185607 72 290 6.0 15.0 0.00 0.00 0.00 27 1020.7
20210923185042 72 351 5.0 14.0 0.00 0.00 0.00 27 1020.7
20210923184702 72 354 7.0 14.0 0.00 0.00 0.00 27 1020.8
20210923184048 72 321 5.0 12.0 0.00 0.00 0.00 28 1020.8
20210923183539 72 15 6.0 14.0 0.00 0.00 0.00 29 1020.9
20210923183120 71 336 5.0 14.0 0.00 0.00 0.00 29 1020.8
20210923182537 71 17 8.0 13.0 0.00 0.00 0.00 28 1020.8
20210923182040 71 12 6.0 15.0 0.00 0.00 0.00 29 1020.8
20210923181638 71 67 5.0 15.0 0.00 0.00 0.00 29 1020.9
20210923181036 71 38 6.0 13.0 0.00 0.00 0.00 29 1021.0
20210923180542 71 2 5.0 12.0 0.00 0.00 0.00 29 1021.1
20210923180105 71 49 5.0 11.0 0.00 0.00 0.00 29 1021.1
20210923175535 70 288 6.0 11.0 0.00 0.00 0.00 29 1021.2
20210923175032 70 20 3.0 12.0 0.00 0.00 0.00 31 1021.3
20210923174610 70 26 7.0 13.0 0.00 0.00 0.00 29 1021.2
20210923174033 70 36 6.0 12.0 0.00 0.00 0.00 28 1021.2
20210923173529 70 24 4.0 13.0 0.00 0.00 0.00 30 1021.3
20210923173048 70 329 6.0 13.0 0.00 0.00 0.00 30 1021.3
20210923172529 70 28 6.0 11.0 0.00 0.00 0.00 29 1021.5
20210923172028 69 36 5.0 11.0 0.00 0.00 0.00 30 1021.4
20210923171548 69 20 3.0 10.0 0.00 0.00 0.00 30 1021.4
20210923171026 69 352 2.0 11.0 0.00 0.00 0.00 30 1021.5
20210923170525 68 2 3.0 11.0 0.00 0.00 0.00 29 1021.5
20210923170040 68 18 4.0 10.0 0.00 0.00 0.00 29 1021.6
20210923165524 68 315 3.0 9.0 0.00 0.00 0.00 29 1021.6
20210923165028 68 334 4.0 11.0 0.00 0.00 0.00 29 1021.5
20210923164546 67 344 2.0 7.0 0.00 0.00 0.00 31 1021.6
20210923164027 67 346 3.0 6.0 0.00 0.00 0.00 33 1021.6
20210923163520 66 280 2.0 8.0 0.00 0.00 0.00 35 1021.7
20210923163048 64 5 3.0 8.0 0.00 0.00 0.00 38 1021.7
20210923162522 63 291 0.0 6.0 0.00 0.00 0.00 41 1021.6
20210923162017 62 272 3.0 6.0 0.00 0.00 0.00 41 1021.6
20210923161523 62 283 3.0 6.0 0.00 0.00 0.00 43 1021.6
20210923161013 61 301 2.0 5.0 0.00 0.00 0.00 43 1021.6
20210923160512 61 267 0.0 3.0 0.00 0.00 0.00 44 1021.7
20210923160038 60 86 0.0 3.0 0.00 0.00 0.00 44 1021.8
20210923155513 60 349 0.0 3.0 0.00 0.00 0.00 44 1021.8
20210923155007 60 44 1.0 2.0 0.00 0.00 0.00 44 1021.7
20210923154507 59 34 0.0 2.0 0.00 0.00 0.00 44 1021.6
20210923154005 59 25 0.0 2.0 0.00 0.00 0.00 46 1021.5
20210923153505 58 58 0.0 2.0 0.00 0.00 0.00 47 1021.5
20210923153010 58 41 0.0 4.0 0.00 0.00 0.00 47 1021.5
20210923152505 58 37 0.0 5.0 0.00 0.00 0.00 46 1021.5
20210923152004 58 55 1.0 5.0 0.00 0.00 0.00 45 1021.4
20210923151504 58 63 2.0 5.0 0.00 0.00 0.00 46 1021.3
20210923151002 58 15 2.0 4.0 0.00 0.00 0.00 45 1021.4
20210923150502 57 15 0.0 3.0 0.00 0.00 0.00 48 1021.2
20210923150200 56 322 0.0 3.0 0.00 0.00 0.00 48 1021.1
20210923145600 55 274 0.0 0.0 0.00 0.00 0.00 50 1021.1
20210923145101 54 274 0.0 0.0 0.00 0.00 0.00 50 1021.1
20210923144740 53 271 0.0 0.0 0.00 0.00 0.00 51 1021.0
20210923144057 52 274 0.0 2.0 0.00 0.00 0.00 52 1020.9
20210923143558 52 282 0.0 2.0 0.00 0.00 0.00 53 1020.9
20210923143131 51 281 1.0 2.0 0.00 0.00 0.00 53 1020.8
20210923142600 51 248 0.0 1.0 0.00 0.00 0.00 56 1020.7
20210923142056 51 240 0.0 1.0 0.00 0.00 0.00 57 1020.7
20210923141709 51 252 0.0 2.0 0.00 0.00 0.00 59 1020.8
20210923141116 51 252 0.0 2.0 0.00 0.00 0.00 57 1020.7
20210923140554 51 257 0.0 1.0 0.00 0.00 0.00 57 1020.7
20210923140114 51 257 0.0 1.0 0.00 0.00 0.00 57 1020.5
20210923135603 51 212 0.0 1.0 0.00 0.00 0.00 57 1020.4
20210923135051 51 212 0.0 1.0 0.00 0.00 0.00 57 1020.4
20210923134651 51 155 0.0 1.0 0.00 0.00 0.00 57 1020.3
20210923134051 51 153 0.0 1.0 0.00 0.00 0.00 55 1020.4
20210923133549 52 113 0.0 3.0 0.00 0.00 0.00 55 1020.4
20210923133213 52 113 0.0 3.0 0.00 0.00 0.00 53 1020.3
20210923132547 52 93 1.0 3.0 0.00 0.00 0.00 52 1020.3
20210923132047 53 271 1.0 2.0 0.00 0.00 0.00 52 1020.2
20210923131553 53 224 0.0 3.0 0.00 0.00 0.00 51 1020.1
20210923131057 53 233 1.0 3.0 0.00 0.00 0.00 52 1020.1
20210923130545 53 240 1.0 3.0 0.00 0.00 0.00 51 1020.1
20210923130224 53 258 1.0 2.0 0.00 0.00 0.00 51 1020.1
20210923125606 53 243 0.0 2.0 0.00 0.00 0.00 54 1020.1
20210923125050 53 219 0.0 2.0 0.00 0.00 0.00 54 1020.0
20210923124652 53 257 1.0 2.0 0.00 0.00 0.00 54 1020.1
20210923124103 53 261 1.0 2.0 0.00 0.00 0.00 55 1020.1
20210923123543 53 248 0.0 1.0 0.00 0.00 0.00 54 1020.0
20210923123106 53 302 0.0 3.0 0.00 0.00 0.00 53 1020.1
20210923122610 53 307 1.0 3.0 0.00 0.00 0.00 52 1019.9
20210923122040 54 336 0.0 1.0 0.00 0.00 0.00 50 1019.8
20210923121552 54 7 0.0 1.0 0.00 0.00 0.00 48 1019.9
20210923121041 54 7 0.0 1.0 0.00 0.00 0.00 46 1019.8
20210923120553 55 7 0.0 0.0 0.00 0.00 0.00 44 1019.7
20210923120141 55 7 0.0 0.0 0.00 0.00 0.00 44 1019.7
20210923115539 55 7 0.0 1.0 0.00 0.00 0.00 43 1019.7
20210923115038 55 7 0.0 1.0 0.00 0.00 0.00 42 1019.7
20210923114600 55 309 0.0 1.0 0.00 0.00 0.00 42 1019.7
20210923114055 55 309 0.0 4.0 0.00 0.00 0.00 41 1019.6
20210923113540 54 310 0.0 0.0 0.00 0.00 0.00 41 1019.5
20210923113040 54 280 0.0 3.0 0.00 0.00 0.00 42 1019.6
20210923112602 54 287 1.0 3.0 0.00 0.00 0.00 41 1019.6
20210923112038 54 193 0.0 3.0 0.00 0.00 0.00 41 1019.3
20210923111600 55 302 2.0 3.0 0.00 0.00 0.00 41 1019.4
20210923111100 55 239 1.0 3.0 0.00 0.00 0.00 39 1019.1
20210923110111 56 277 1.0 3.0 0.00 0.00 0.00 38 1019.1
20210923105537 55 262 1.0 3.0 0.00 0.00 0.00 39 1019.1
20210923105039 55 240 1.0 3.0 0.00 0.00 0.00 40 1018.9
20210923104611 55 229 1.0 3.0 0.00 0.00 0.00 40 1018.9
20210923104040 55 224 1.0 2.0 0.00 0.00 0.00 40 1018.9
20210923103537 55 216 0.0 2.0 0.00 0.00 0.00 41 1019.0
20210923103113 55 217 0.0 2.0 0.00 0.00 0.00 40 1019.1
20210923102534 55 198 0.0 3.0 0.00 0.00 0.00 40 1019.1
20210923102036 54 226 1.0 3.0 0.00 0.00 0.00 41 1019.1
20210923101607 53 212 0.0 1.0 0.00 0.00 0.00 43 1019.2
20210923101035 53 250 0.0 1.0 0.00 0.00 0.00 45 1019.1
20210923100559 54 215 0.0 2.0 0.00 0.00 0.00 43 1019.2
20210923100114 54 215 0.0 2.0 0.00 0.00 0.00 41 1019.2
20210923095533 54 230 1.0 2.0 0.00 0.00 0.00 41 1019.2
20210923095031 53 221 0.0 2.0 0.00 0.00 0.00 44 1019.2
20210923094615 53 248 0.0 2.0 0.00 0.00 0.00 44 1019.3
20210923094040 53 247 0.0 2.0 0.00 0.00 0.00 44 1019.2
20210923093530 53 232 1.0 2.0 0.00 0.00 0.00 44 1019.3
20210923093053 52 219 1.0 2.0 0.00 0.00 0.00 46 1019.4
20210923092540 52 219 0.0 1.0 0.00 0.00 0.00 44 1019.5
20210923092029 52 219 0.0 1.0 0.00 0.00 0.00 44 1019.5
20210923091528 53 219 0.0 1.0 0.00 0.00 0.00 46 1019.6
20210923091027 53 214 0.0 1.0 0.00 0.00 0.00 45 1019.6
20210923090526 53 236 0.0 1.0 0.00 0.00 0.00 45 1019.5
20210923090027 53 149 0.0 0.0 0.00 0.00 0.00 44 1019.6
20210923085529 54 149 0.0 2.0 0.00 0.00 0.00 43 1019.6
20210923085028 54 149 1.0 2.0 0.00 0.00 0.00 41 1019.7
20210923084551 54 198 0.0 1.0 0.00 0.00 0.00 39 1019.7
20210923084023 54 236 0.0 1.0 0.00 0.00 0.00 40 1019.7
20210923083523 54 248 0.0 2.0 0.00 0.00 0.00 40 1019.6
20210923083023 54 269 1.0 2.0 0.00 0.00 0.00 40 1019.6
20210923082521 55 253 0.0 2.0 0.00 0.00 0.00 39 1019.6
20210923082024 55 249 0.0 1.0 0.00 0.00 0.00 39 1019.8
20210923081521 55 248 0.0 0.0 0.00 0.00 0.00 36 1019.8
20210923081020 56 248 0.0 1.0 0.00 0.00 0.00 36 1019.7
20210923080520 56 248 0.0 2.0 0.00 0.00 0.00 35 1019.8
20210923080031 56 248 0.0 3.0 0.00 0.00 0.00 35 1019.7
20210923075519 57 272 1.0 4.0 0.00 0.00 0.00 34 1019.7
20210923075018 57 245 1.0 5.0 0.00 0.00 0.00 34 1019.8
20210923074542 57 344 2.0 5.0 0.00 0.00 0.00 34 1019.9
20210923074043 58 234 0.0 3.0 0.00 0.00 0.00 34 1019.6
20210923073516 57 239 1.0 4.0 0.00 0.00 0.00 34 1019.5
20210923073031 57 246 2.0 4.0 0.00 0.00 0.00 35 1019.5
20210923072515 57 251 2.0 4.0 0.00 0.00 0.00 35 1019.4
20210923072020 57 260 1.0 3.0 0.00 0.00 0.00 35 1019.5
20210923071514 57 250 1.0 3.0 0.00 0.00 0.00 35 1019.5
20210923071016 57 259 1.0 3.0 0.00 0.00 0.00 35 1019.5
20210923070514 57 255 2.0 3.0 0.00 0.00 0.00 35 1019.4
20210923070022 57 248 1.0 3.0 0.00 0.00 0.00 36 1019.4
20210923065515 57 252 2.0 3.0 0.00 0.00 0.00 35 1019.5
20210923065013 57 248 1.0 3.0 0.00 0.00 0.00 35 1019.5
20210923064520 57 264 1.0 2.0 0.00 0.00 0.00 35 1019.5
20210923064011 57 264 1.0 3.0 0.00 0.00 0.00 37 1019.5
20210923063512 56 255 1.0 3.0 0.00 0.00 0.00 38 1019.5
20210923063010 56 245 2.0 2.0 0.00 0.00 0.00 40 1019.4
20210923062508 55 242 1.0 2.0 0.00 0.00 0.00 42 1019.4
20210923062008 55 211 0.0 1.0 0.00 0.00 0.00 43 1019.4
20210923061508 55 211 0.0 1.0 0.00 0.00 0.00 42 1019.4
20210923061010 55 151 0.0 0.0 0.00 0.00 0.00 45 1019.4
20210923060521 55 151 0.0 1.0 0.00 0.00 0.00 43 1019.4
20210923060006 56 151 0.0 1.0 0.00 0.00 0.00 42 1019.5
20210923055504 56 150 0.0 1.0 0.00 0.00 0.00 44 1019.6
20210923055003 55 143 0.0 1.0 0.00 0.00 0.00 46 1019.5
20210923054510 56 207 0.0 1.0 0.00 0.00 0.00 43 1019.5
20210923054003 56 233 0.0 1.0 0.00 0.00 0.00 45 1019.5
20210923053503 56 235 0.0 0.0 0.00 0.00 0.00 46 1019.5
20210923053015 56 235 0.0 0.0 0.00 0.00 0.00 45 1019.4
20210923052503 56 235 0.0 0.0 0.00 0.00 0.00 43 1019.5
20210923052007 57 235 0.0 0.0 0.00 0.00 0.00 42 1019.4
20210923051502 57 235 0.0 0.0 0.00 0.00 0.00 42 1019.4
20210923051001 57 235 0.0 0.0 0.00 0.00 0.00 41 1019.4
20210923050503 58 236 0.0 0.0 0.00 0.00 0.00 40 1019.3
20210923050001 59 236 0.0 1.0 0.00 0.00 0.00 39 1019.3
20210923045502 59 236 0.0 1.0 0.00 0.00 0.00 37 1019.4
20210923045100 60 244 0.0 1.0 0.00 0.00 0.00 37 1019.4
20210923044704 61 230 0.0 0.0 0.00 0.00 0.00 34 1019.5
20210923043559 61 230 0.0 2.0 0.00 0.00 0.00 34 1019.5
20210923043138 62 238 1.0 3.0 0.00 0.00 0.00 33 1019.5
20210923042558 62 250 1.0 3.0 0.00 0.00 0.00 33 1019.5
20210923042105 62 255 2.0 3.0 0.00 0.00 0.00 33 1019.6
20210923041630 62 244 1.0 3.0 0.00 0.00 0.00 33 1019.6
20210923041127 62 236 1.0 3.0 0.00 0.00 0.00 33 1019.6
20210923040729 62 247 1.0 3.0 0.00 0.00 0.00 33 1019.7
20210923040154 62 259 1.0 3.0 0.00 0.00 0.00 33 1019.7
20210923035606 62 260 0.0 4.0 0.00 0.00 0.00 33 1019.8
20210923035102 63 229 1.0 4.0 0.00 0.00 0.00 32 1019.9
20210923034619 63 234 2.0 4.0 0.00 0.00 0.00 31 1019.9
20210923034058 63 248 1.0 3.0 0.00 0.00 0.00 31 1019.9
20210923033604 63 233 2.0 3.0 0.00 0.00 0.00 31 1020.1
20210923033132 63 246 1.0 4.0 0.00 0.00 0.00 31 1020.2
20210923032552 63 250 1.0 4.0 0.00 0.00 0.00 31 1020.2